Russellville, AR

8:44 PM CST on December 14, 2019 (GMT -0600)
Russellville Regional

Weather History for KRUE - November, 2019

Change the Weather History Date:

Wednesday, November 13, 2019

  Actual Average (WUND) Record (WUND)
Temperature  
Mean Temperature 30 °F -  
Max Temperature 43 °F - - (-1)
Min Temperature 16 °F - - (-1)
Degree Days  
Heating Degree Days 36    
Moisture  
Dew Point 16 °F    
Average Humidity 60    
Maximum Humidity 88    
Minimum Humidity 31    
Precipitation  
Precipitation 0.00 in - - ()
Sea Level Pressure  
Sea Level Pressure 30.25 in    
Wind  
Wind Speed 2 mph (SE)    
Max Wind Speed 10 mph    
Max Gust Speed -    
Visibility 10 miles    
Events      
Averages and records for this station are not official NWS values.
T = Trace of Precipitation, MM = Missing Value Source: NWS Daily Summary

Daily Weather History Graph

Daily Weather History Graph

Search for Another Location

Airport or City:

Astronomy

Nov. 13, 2019 Rise Set
Actual Time 6:45 AM CST 5:07 PM CST
Civil Twilight 6:18 AM CST 5:34 PM CST
Nautical Twilight 5:47 AM CST 6:05 PM CST
Astronomical Twilight 5:17 AM CST 6:35 PM CST
Moon 6:12 PM CST (11/13) 7:38 AM CST (11/13)
Length of Visible Light 11h 16m
Length of Day
10h 22m
Full, 99% of the Moon is Illuminated
Nov 13
Full
Nov 19
Last Quarter
Nov 26
New
Dec 4
First Quarter
Dec 11
Full

Hourly Weather History & Observations

Time (CST) Temp. Windchill Dew Point Humidity Pressure Visibility Wind Dir Wind Speed Gust Speed Precip Events Conditions
12:53 AM 19.0 °F - 15.1 °F 85% 30.39 in 10.0 mi Calm Calm - N/A   Clear
2:53 AM 18.0 °F - 14.0 °F 84% 30.38 in 10.0 mi Calm Calm - N/A   Clear
4:53 AM 16.0 °F - 12.9 °F 88% 30.36 in 10.0 mi Calm Calm - N/A   Clear
5:53 AM 19.0 °F 12.3 °F 14.0 °F 81% 30.35 in 10.0 mi ESE 4.6 mph - N/A   Clear
6:53 AM 18.0 °F - 14.0 °F 84% 30.36 in 10.0 mi Calm Calm - N/A   Clear
7:53 AM 21.0 °F - 16.0 °F 81% 30.38 in 10.0 mi Calm Calm - N/A   Clear
8:53 AM 24.1 °F 19.7 °F 16.0 °F 71% 30.37 in 10.0 mi Variable 3.5 mph - N/A   Clear
9:53 AM 28.0 °F 21.7 °F 17.1 °F 63% 30.35 in 10.0 mi Variable 5.8 mph - N/A   Clear
10:53 AM 32.0 °F 26.4 °F 14.0 °F 48% 30.32 in 10.0 mi SSE 5.8 mph - N/A   Clear
11:53 AM 35.1 °F 30.1 °F 14.0 °F 42% 30.29 in 10.0 mi SSW 5.8 mph - N/A   Clear
12:53 PM 39.0 °F - 14.0 °F 36% 30.23 in 10.0 mi Calm Calm - N/A   Clear
1:53 PM 42.1 °F 37.1 °F 12.9 °F 31% 30.18 in 10.0 mi ENE 8.1 mph - N/A   Clear
2:53 PM 42.1 °F 36.1 °F 15.1 °F 34% 30.15 in 10.0 mi East 10.4 mph - N/A   Clear
3:53 PM 43.0 °F 41.3 °F 16.0 °F 34% 30.14 in 10.0 mi ENE 3.5 mph - N/A   Clear
4:53 PM 39.0 °F - 18.0 °F 43% 30.13 in 10.0 mi Calm Calm - N/A   Clear
5:53 PM 35.1 °F - 19.0 °F 52% 30.13 in 10.0 mi Calm Calm - N/A   Clear
6:53 PM 34.0 °F 29.8 °F 19.0 °F 54% 30.14 in 10.0 mi SSE 4.6 mph - N/A   Clear
7:53 PM 30.9 °F - 19.9 °F 64% 30.17 in 10.0 mi Calm Calm - N/A   Clear
8:53 PM 30.9 °F 27.5 °F 21.9 °F 69% 30.18 in 10.0 mi South 3.5 mph - N/A   Mostly Cloudy
9:53 PM 34.0 °F - 17.1 °F 50% 30.19 in 10.0 mi Calm Calm - N/A   Partly Cloudy
10:53 PM 30.9 °F 27.5 °F 19.0 °F 61% 30.19 in 10.0 mi South 3.5 mph - N/A   Clear
11:53 PM 28.9 °F 25.2 °F 19.0 °F 67% 30.19 in 10.0 mi East 3.5 mph - N/A   Clear